Weather History for KLWM - April, 2014

Change the Weather History Date:

Tuesday, April 1, 2014

  Actual Average Record
Temperature  
Mean Temperature 43 °F -  
Max Temperature 55 °F 52 °F 74 °F (1967)
Min Temperature 33 °F 32 °F 17 °F (1964)
Degree Days  
Heating Degree Days 22    
Moisture  
Dew Point 26 °F    
Average Humidity 53    
Maximum Humidity 70    
Minimum Humidity 38    
Precipitation  
Precipitation 0.00 in - - ()
Sea Level Pressure  
Sea Level Pressure 30.06 in    
Wind  
Wind Speed 9 mph (NNE)    
Max Wind Speed 15 mph    
Max Gust Speed -    
Visibility 10 miles    
Events      
Averages and records for this station are not official NWS values.
T = Trace of Precipitation, MM = Missing Value Source: NWS Daily Summary

Daily Weather History Graph

Daily Weather History Graph

Search for Another Location

Airport or City:

Trip Planner

Search our weather history database for the weather conditions in past years. The results will help you decide how hot, cold, wet, or windy it might be!

Date:

Astronomy

Apr. 01, 2014 Rise Set
Actual Time 6:26 AM EDT 7:10 PM EDT
Civil Twilight 5:58 AM EDT 7:39 PM EDT
Nautical Twilight 5:24 AM EDT 8:13 PM EDT
Astronomical Twilight 4:49 AM EDT 8:48 PM EDT
Moon 7:24 AM EDT (4/1) 9:33 PM EDT (4/1)
Length of Visible Light 13h 40m
Length of Day
12h 43m
Waxing Crescent, 4% of the Moon is Illuminated
Apr 1
Waxing Crescent
Apr 7
First Quarter
Apr 15
Full
Apr 22
Last Quarter
Apr 29
New

Hourly Weather History & Observations

Time (EDT) Temp. Windchill Dew Point Humidity Pressure Visibility Wind Dir Wind Speed Gust Speed Precip Events Conditions
12:54 AM 37.0 °F 28.1 °F 26.1 °F 65% 30.03 in 10.0 mi North 15.0 mph - N/A   Overcast
1:54 AM 36.0 °F 29.6 °F 25.0 °F 64% 30.03 in 10.0 mi North 8.1 mph - N/A   Overcast
2:54 AM 35.1 °F 29.3 °F 25.0 °F 67% 30.04 in 10.0 mi NW 6.9 mph - N/A   Overcast
3:54 AM 34.0 °F 26.6 °F 25.0 °F 70% 30.04 in 10.0 mi NNW 9.2 mph - N/A   Scattered Clouds
4:54 AM 33.1 °F 26.9 °F 24.1 °F 70% 30.04 in 10.0 mi NNW 6.9 mph - N/A   Clear
5:54 AM 33.1 °F 26.9 °F 24.1 °F 70% 30.05 in 10.0 mi NNW 6.9 mph - N/A   Clear
6:54 AM 33.1 °F 26.1 °F 24.1 °F 70% 30.06 in 10.0 mi NNW 8.1 mph - N/A   Clear
7:54 AM 36.0 °F 28.5 °F 24.1 °F 62% 30.07 in 10.0 mi North 10.4 mph - N/A   Clear
8:54 AM 39.0 °F 31.8 °F 27.0 °F 62% 30.07 in 10.0 mi North 11.5 mph - N/A   Clear
9:54 AM 43.0 °F 35.7 °F 28.0 °F 56% 30.09 in 10.0 mi NNE 15.0 mph - N/A   Clear
10:54 AM 46.0 °F 41.9 °F 28.0 °F 50% 30.08 in 10.0 mi NE 8.1 mph - N/A   Clear
11:54 AM 48.0 °F - 27.0 °F 44% 30.06 in 10.0 mi ENE 8.1 mph - N/A   Clear
11:55 AM 48.0 °F - 27.0 °F 44% 30.06 in 10.0 mi ENE 8.1 mph - N/A   Clear
11:57 AM 48.9 °F - 28.0 °F 44% 30.06 in 10.0 mi NNE 8.1 mph - N/A   Partly Cloudy
12:54 PM 48.9 °F - 27.0 °F 43% 30.06 in 10.0 mi Calm Calm - N/A   Partly Cloudy
1:54 PM 52.0 °F - 28.0 °F 40% 30.04 in 10.0 mi ENE 9.2 mph - N/A   Clear
2:54 PM 53.1 °F - 28.0 °F 38% 30.03 in 10.0 mi Calm Calm - N/A   Partly Cloudy
3:54 PM 52.0 °F - 27.0 °F 38% 30.03 in 10.0 mi East 9.2 mph - N/A   Clear
4:54 PM 51.1 °F - 26.1 °F 38% 30.04 in 10.0 mi East 8.1 mph - N/A   Clear
5:54 PM 50.0 °F - 26.1 °F 39% 30.06 in 10.0 mi East 6.9 mph - N/A   Clear
6:54 PM 46.0 °F 43.1 °F 24.1 °F 42% 30.06 in 10.0 mi East 5.8 mph - N/A   Clear
7:54 PM 43.0 °F 39.5 °F 24.1 °F 47% 30.08 in 10.0 mi East 5.8 mph - N/A   Clear
8:54 PM 43.0 °F - 23.0 °F 45% 30.10 in 10.0 mi Calm Calm - N/A   Clear
9:54 PM 39.9 °F - 24.1 °F 53% 30.11 in 10.0 mi Calm Calm - N/A   Clear
10:54 PM 39.0 °F 35.7 °F 25.0 °F 57% 30.12 in 10.0 mi SSW 4.6 mph - N/A   Clear
11:54 PM 37.9 °F 35.5 °F 26.1 °F 62% 30.12 in 10.0 mi SSW 3.5 mph - N/A   Clear